Location: Newark
(34.1333°N, 7.9667°W)
Time: 15:38:51
(UTC+00:00)

UNISAT 6 - Visible Passes

Search period start: 31 May 2023 00:00
Search period end: 10 June 2023 00:00
Orbit: 599 x 680 km, 97.7° (Epoch: 31 May)

Date Brightness Start Highest point End Pass type
(mag) Time Alt. Az. Time Alt. Az. Time Alt. Az.
31 May ? 04:35:36 10° SE 04:39:22 28° ENE 04:43:04 10° NNE visible
03 Jun ? 04:10:42 10° E 04:13:03 14° ENE 04:15:24 10° NE visible
04 Jun ? 04:32:35 10° SE 04:36:11 26° ENE 04:39:45 10° NNE visible
07 Jun ? 04:07:47 10° E 04:09:49 13° ENE 04:11:52 10° NE visible
08 Jun ? 04:29:28 10° SE 04:32:56 24° ENE 04:36:22 10° NNE visible
09 Jun ? 04:52:00 10° SSE 04:56:06 44° ENE 05:00:09 10° N visible
